Location: Newark
(54.2500°N, 9.1833°E)
Time: 05:02:30
(UTC+00:00)

Transit 4A - Pass Details

Date: 20 December 2019
Orbit: 871 x 973 km, 66.8° (Epoch: 20 January)

Event Time Altitude Azimuth Distance (km) Brightness Sun altitude
Rises 20:02:52 0° 310° (NW) 3,525 11.7 -42.1°
Reaches altitude 10° 20:05:41 10° 320° (NW) 2,569 10.7 -42.5°
Enters shadow 20:06:53 15° 328° (NNW) 2,200 10.2 -42.7°
